Regional Weather Roundup
Issued by NWS San Diego, CA

Home | Current Version | Previous Version | Text Only | Print | Product List | Glossary On
Versions: 1 2 3 4 5 6 7 8 9 10 11 12 13 14 15 16 17 18 19 20 21 22 23 24 25 26 27
000
ASUS46 KSGX 230011
RWRSGX

SAN DIEGO HOURLY WEATHER ROUNDUP
NATIONAL WEATHER SERVICE SAN DIEGO CA
400 PM PST WED FEB 22 2017

NOTE: "FAIR" INDICATES FEW OR NO CLOUDS BELOW 12,000 FEET WITH NO
SIGNIFICANT WEATHER AND/OR OBSTRUCTIONS TO VISIBILITY.

CAZ042-043-060-061-PZZ750-775-230100-

GREATER SAN DIEGO AREA

CITY           SKY/WX    TMP DP  RH WIND       PRES   REMARKS
SAN DIEGO AP   PTSUNNY   61  42  49 W15       30.10R
NATIONAL CITY    N/A     61  48  62 N14       30.08S
CHULA VISTA      N/A     61  49  64 W12       30.00F
IMPERIAL BEACH PTSUNNY   61  46  57 NW15      30.09S
BROWN FIELD    SUNNY     58  46  64 W13       30.07S
MIRAMAR MCAS   PTSUNNY   61  45  55 W14       30.07S
MONTGOMERY FLD MOSUNNY   58  43  57 W14       30.07S

$$

NORTH SAN DIEGO COUNTY

CITY           SKY/WX    TMP DP  RH WIND       PRES   REMARKS
CAMP PENDLETON MOSUNNY   59  47  64 W7        30.06S
OCEANSIDE AP   SUNNY     58  49  72 W10       30.06S
OCEANSIDE HBR    N/A     58  49  72 NW7       30.09S
VISTA            N/A     58  49  70 W1        30.05S
CARLSBAD       MOSUNNY   59  49  69 W13G18    30.05F
DEL MAR          N/A     58  49  70 NW2       30.10S
LA JOLLA SCRIP   N/A     58  49  71 SW8       30.08S
FALLBROOK        N/A     58  49  72 W3        30.04S
ESCONDIDO        N/A     58  47  66 W8        30.08R
SAN MARCOS       N/A     58  47  66 W8        30.08R
POWAY            N/A     60  47  62 SW2       30.09

$$

EAST SAN DIEGO COUNTY

CITY           SKY/WX    TMP DP  RH WIND       PRES   REMARKS
RAMONA         PTSUNNY   53  47  79 W13       30.05S
SANTEE LAKES     N/A     60  47  62 W7        30.07R
LA MESA          N/A     57  44  61 W3        30.01S
JAMUL            N/A     56  47  72 CALM      30.07R
DESCANSO N       N/A     48  41  75 W12       29.99S
CAMPO            N/A     53  43  68 W17G24    29.99S

$$

ORANGE COUNTY AND THE LOS ANGELES BASIN

CITY           SKY/WX    TMP DP  RH WIND       PRES   REMARKS
JOHN WAYNE AP  MOSUNNY   60  46  59 W9        30.04F
LAGUNA BEACH     N/A     60  50  69 W2        30.01F
LAKE FOREST FR   N/A     58  42  54 W5        29.95S
HUNTINGTON BCH   N/A     62  51  67 SW3       30.06F
LOS ALAMITOS   MOSUNNY   60  48  63 SW10      30.03F
FULLERTON      SUNNY     63  43  48 VRB6      30.02F
LONG BEACH     SUNNY     62  42  47 W10       30.03F
L.A. AP        MOSUNNY   60  49  66 W25       30.02F
L.A. DOWNTOWN  MOSUNNY   64  42  44 W9        30.01F

$$

THE INLAND EMPIRE

CITY           SKY/WX    TMP DP  RH WIND       PRES   REMARKS
CORONA         SUNNY     60  42  51 W12       30.02F
CHINO          MOSUNNY   61  43  51 SW14      30.02F
ONTARIO        MOSUNNY   59  41  51 SW16      30.01F
SAN BERNARDINO MOSUNNY   61  39  44 SW14      30.01F
RIVERSIDE AP   MOSUNNY   59  39  47 W18G24    30.01S
MORENO VALLEY    N/A     61  45  56 W9        28.12F
MARCH ARB      PTSUNNY   58  40  50 W13       30.00F
HORSETHIEF CYN   N/A     56  35  44 W7        30.03S
PERRIS           N/A     61  47  59 W3        30.02F
HEMET EAST       N/A     57  37  48 W8        30.05F
FRENCH VALLEY  FAIR      57  39  51 S13       30.02F
TEMECULA         N/A     59  46  63 SW12      30.05R

$$

SAN BERNARDINO AND RIVERSIDE COUNTY MOUNTAINS

CITY           SKY/WX    TMP DP  RH WIND       PRES   REMARKS
BIG BEAR AP    SUNNY     34  23  64 SW13G25   29.94F WCI  25
ANGELUS OAKS     N/A     38  31  76 SW1       29.93F
PINE COVE        N/A     36  33  89 CALM      29.95F

$$

SOUTHERN DESERT INCLUDING THE COACHELLA VALLEY

CITY           SKY/WX    TMP DP  RH WIND       PRES   REMARKS
PALM SPRINGS   SUNNY     72  39  30 E8G24     29.84F
PALM DESERT      N/A     72  34  24 SW1         N/A
THERMAL        SUNNY     73  34  23 NW12      29.84S
BLYTHE         MOSUNNY   76  33  21 SW16      29.80F
EL CENTRO NAS  PTSUNNY   73  35  25 W31G44    29.87S
YUMA AZ        CLOUDY    76  41  28 W6        29.82
MEXICALI       MOSUNNY   75  25  15 W25       29.83

$$

UPPER DESERT

CITY           SKY/WX    TMP DP  RH WIND       PRES   REMARKS
VICTORVILLE AP PTSUNNY   48  28  46 W21G28    30.01R
HESPERIA         N/A     48  35  60 NW5       30.12S
PALMDALE       MOSUNNY   50  32  50 W25G35    30.04S
LANCASTER      MOSUNNY   51  32  48 W24G32    30.05S
EDWARDS AFB    MOSUNNY   52  28  40 W22G32    30.01R
DAGGETT        MOSUNNY   56  29  35 W37G47    29.92S
29 PALMS N     MOSUNNY   60  32  34 NW26G37   29.95F
NEEDLES        SUNNY     73  33  23 W14       29.81F

$$

REGIONAL REPORTS

CITY           SKY/WX    TMP DP  RH WIND       PRES   REMARKS
SANTA BARBARA  SUNNY     62  44  51 W15       30.04S
SANDBERG       MOSUNNY   42  32  67 NW30G36   30.04F
LAS VEGAS NV   MOSUNNY   64  20  18 W16G23    29.78F
PHOENIX AZ     CLOUDY    76  44  32 W7        29.82F
TIJUANA        MOSUNNY   57  43  58 W10       30.10S
ENSENADA NW      N/A     62  32  33 NW20      30.04S

$$

OFFSHORE ISLANDS

CITY           SKY/WX    TMP DP  RH WIND       PRES   REMARKS
CATALINA ARPT  PTSUNNY   53  47  79 W18       30.04F
SAN CLEMENTE I MOSUNNY   57  47  69 W23G31    30.09F
SAN NICOLAS IS MOSUNNY   55  45  68 W33G44    30.09F

$$

MARINE AND OFFSHORE BUOY REPORTS

STATION/POSITION SKY/WX   TEMP    WIND        PRES    VSBY  SWELL
                          AIR SEA DIR/SP/G                  HT/PER/DIR
                          (F)     (DEG/KT/KT) (MB)    (MI)  (FT/S/D)
TANNER BANKS               56 59  310/ 25/ 29 1019.8F        10/320/15
S CLEMENTE BASIN           56 60  290/ 19/ 23 1018.7F         7/290/15
SAN NICOLAS IS.               57                N/A           7/280/15
SO. S. ROSA ISLA           54 57  310/ 25/ 29 1019.8F         7/270/14
W. S. BARBARA CH           54 56  320/ 23/ 29 1020.3F         7/260/15
M. S. BARBARA CH                  280/ 23/ 29 1018.8
S. MONICA BASIN            58 58  280/ 16/ 19 1017.4F         7/260/13
S PEDRO CHANNEL               60                N/A           7/270/14
CMP PENDLETON NS              60                N/A           3/240/15
OCEANSIDE OFFSHR              60                N/A           3/260/13
TORREY PINES OTR              60                N/A           5/270/13
POINT LOMA SOUTH              60                N/A           7/260/14

$$





USA.gov is the U.S. government's official web portal to all federal, state and local government web resources and services.